Date,TemperatureHighF,TemperatureAvgF,TemperatureLowF,DewpointHighF,DewpointAvgF,DewpointLowF,HumidityHigh,HumidityAvg,HumidityLow,PressureMaxIn,PressureMinIn,WindSpeedMaxMPH,WindSpeedAvgMPH,GustSpeedMaxMPH,PrecipitationSumIn
2012-6-17,89,70,65,55,52,51,62,54,30,29.86,29.80,13,4,13,0.00
2012-6-18,91,71,0,56,51,43,86,53,30,29.92,29.77,11,3,11,0.00
2012-6-19,99,77,56,56,43,-12,82,43,2,29.92,29.77,10,2,10,0.00
2012-6-20,104,82,59,54,36,-4,70,33,2,29.86,29.74,12,2,12,0.00
2012-6-21,79,68,0,53,50,48,79,52,39,29.92,0.00,15,4,15,0.00
2012-6-22,77,65,52,54,51,48,85,63,44,29.98,29.86,13,3,13,0.00
2012-6-23,81,66,52,54,47,41,91,55,26,29.95,29.86,12,3,12,0.00
2012-6-24,85,67,50,51,44,34,89,50,19,30.07,29.95,12,2,12,0.00
2012-6-25,82,66,52,52,48,45,83,55,33,30.09,30.01,14,3,14,0.00
2012-6-26,88,70,0,54,43,-16,90,50,2,30.09,29.86,10,2,10,0.00
2012-6-27,98,75,0,56,38,-12,82,41,2,29.92,29.83,11,2,11,0.00
2012-6-28,95,75,58,57,51,43,73,46,25,30.07,29.92,12,2,12,0.08
2012-6-29,90,73,57,58,55,51,89,58,32,30.12,29.98,10,2,10,0.00
2012-6-30,93,75,58,63,59,54,91,62,37,30.03,29.89,13,3,13,0.00
2012-7-1,90,74,61,62,59,56,90,65,38,29.98,29.83,10,2,10,0.00
2012-7-2,96,76,60,65,58,52,91,59,30,29.92,29.77,13,2,13,0.00
2012-7-3,99,77,58,62,55,50,79,50,25,29.95,29.77,9,2,9,0.00
2012-7-4,99,85,60,63,55,47,72,39,26,29.86,29.77,10,3,10,0.00
2012-7-5,90,72,57,57,52,47,86,55,29,29.98,29.86,11,3,11,0.00
2012-7-6,100,76,55,60,52,43,88,50,17,30.03,29.92,9,2,9,0.00
2012-7-7,104,78,61,60,49,-3,67,41,2,30.01,29.89,9,2,10,0.00
2012-7-8,100,81,62,58,51,42,54,36,21,29.98,29.89,10,2,10,0.00
2012-7-9,101,79,57,58,51,39,81,44,13,30.07,29.89,10,2,10,0.00
2012-7-10,107,83,57,61,40,-4,81,36,2,29.98,29.77,8,1,8,0.00
2012-7-11,110,78,62,61,45,-3,68,43,2,29.89,29.74,9,1,9,0.00
2012-7-12,108,84,67,65,54,48,59,38,17,29.86,29.71,10,2,10,0.00
2012-7-13,91,72,58,58,53,49,86,53,32,29.92,29.77,11,3,11,0.00
2012-7-14,93,73,56,60,55,52,92,59,31,29.98,29.83,8,2,8,0.00
2012-7-15,97,70,57,64,56,52,90,63,32,29.95,29.80,9,2,9,0.00
2012-7-16,80,67,57,56,53,49,91,65,41,29.92,29.80,13,4,13,0.00
2012-7-17,80,69,60,54,52,49,79,57,40,30.03,29.80,11,3,11,0.00
2012-7-18,90,72,55,58,53,42,85,55,31,30.03,29.95,10,2,10,0.00
2012-7-19,90,72,60,59,55,50,84,58,29,30.07,29.95,10,2,10,0.00
2012-7-20,100,87,62,61,51,-7,91,35,2,30.09,29.95,10,2,10,0.00
2012-7-21,107,84,63,63,52,0,79,41,2,30.09,29.83,10,1,10,0.00
2012-7-22,106,85,64,64,55,40,69,40,12,29.92,29.77,10,2,10,0.00
2012-7-23,95,77,62,61,54,48,82,48,27,29.92,29.83,12,2,12,0.00
2012-7-24,98,77,58,60,54,46,84,51,19,29.98,29.86,10,2,10,0.00
2012-7-25,96,73,57,59,54,50,86,56,27,30.01,29.89,10,2,10,0.00
2012-7-26,89,70,55,58,53,50,93,59,30,29.98,29.89,11,2,11,0.00
2012-7-27,93,76,57,60,54,52,89,51,28,30.03,29.89,10,2,10,0.00
2012-7-28,96,75,56,60,55,51,91,55,27,30.03,29.95,8,2,8,0.00
2012-7-29,100,76,57,60,54,50,90,52,20,30.07,29.89,8,2,8,0.00
2012-7-30,105,88,61,62,54,28,80,35,9,30.01,29.83,7,2,7,0.00
2012-7-31,105,81,64,62,51,-2,68,41,2,29.98,29.89,9,1,9,0.00
2012-8-1,104,80,59,60,46,-4,77,40,2,30.03,29.89,8,2,8,0.00
2012-8-2,106,81,59,62,52,28,73,43,7,30.01,29.83,8,2,8,0.00
2012-8-3,100,77,58,60,54,50,81,50,26,29.89,29.74,8,2,8,0.00
2012-8-4,83,68,58,58,54,51,84,64,41,29.95,29.80,13,2,13,0.00
2012-8-5,93,70,59,61,57,51,93,68,32,30.07,29.95,9,2,10,0.00
2012-8-6,103,85,55,60,53,40,90,39,12,30.12,29.98,7,2,7,0.00
2012-8-7,103,78,59,62,52,44,78,43,21,30.07,29.92,8,2,8,0.00
2012-8-8,106,80,58,59,47,-1,73,39,2,30.01,29.86,9,1,9,0.00
2012-8-9,109,85,62,62,49,-2,71,35,2,29.95,29.77,6,1,6,0.00
2012-8-10,110,86,63,63,52,2,72,37,2,29.86,29.68,8,1,8,0.00
2012-8-11,111,86,61,61,42,-7,78,34,2,29.83,29.68,7,1,7,0.00
2012-8-12,106,84,64,61,45,-5,65,33,2,29.86,29.71,8,1,8,0.00
2012-8-13,111,88,66,63,46,-4,61,30,2,29.86,29.71,6,1,6,0.00
2012-8-14,101,81,68,60,50,43,49,34,17,29.80,29.71,8,2,8,0.00
2012-8-15,101,81,64,61,53,45,74,42,16,29.86,29.74,10,2,10,0.00
2012-8-16,102,78,60,59,53,44,84,48,16,29.95,29.83,10,2,10,0.00
2012-8-17,101,78,59,61,54,48,79,46,23,29.98,29.83,10,1,10,0.00
2012-8-18,104,84,66,60,53,48,60,37,22,29.95,29.83,8,2,8,0.00
2012-8-19,99,76,60,60,53,46,76,48,26,29.98,29.83,8,1,8,0.00
2012-8-20,102,84,60,62,55,46,75,39,21,29.95,29.80,8,2,8,0.00
2012-8-21,96,74,59,59,53,46,77,51,27,29.92,29.77,10,1,10,0.00
2012-8-22,98,81,58,63,56,51,87,46,27,29.95,29.83,9,2,9,0.00
2012-8-23,96,75,58,60,54,45,89,55,20,29.95,29.80,8,2,8,0.00
2012-8-24,100,76,57,61,52,-8,87,49,2,29.95,29.77,9,2,9,0.00
2012-8-25,91,72,57,59,52,48,84,54,29,29.86,29.74,10,2,10,0.00
2012-8-26,84,68,56,55,51,47,87,60,33,30.01,29.83,11,2,11,0.00
2012-8-27,95,73,52,58,44,-12,93,50,2,30.09,29.95,6,1,6,0.00
2012-8-28,100,77,57,63,51,-4,86,48,2,30.03,29.89,7,1,7,0.00
2012-8-29,102,83,58,56,38,-10,76,31,2,29.95,29.77,7,1,7,0.00
2012-8-30,102,76,59,58,48,-5,74,43,2,29.92,29.74,8,2,8,0.00
2012-8-31,81,65,56,56,53,50,91,67,42,29.98,29.80,14,3,14,0.00
2012-9-1,87,72,55,58,53,48,88,54,30,30.07,29.95,9,2,9,0.00
2012-9-2,98,72,54,59,51,39,94,56,17,30.07,29.89,6,1,6,0.00
2012-9-3,101,83,56,57,39,-4,68,28,2,29.98,29.86,6,1,6,0.00
2012-9-4,100,76,58,57,46,-12,66,40,2,30.03,29.89,8,1,8,0.00
2012-9-5,92,76,57,60,52,45,80,46,29,29.98,29.89,9,2,9,0.00
2012-9-6,95,78,59,57,47,32,74,39,13,30.01,29.89,7,2,7,0.00
2012-9-7,97,74,56,54,46,8,76,45,6,30.09,29.95,8,2,8,0.00
2012-9-8,93,73,60,57,50,45,70,46,23,30.07,29.89,8,2,8,0.00
2012-9-9,93,70,58,54,50,46,74,52,23,30.01,29.86,8,1,8,0.00
2012-9-10,96,64,53,57,48,-7,92,64,2,29.95,29.80,8,0,8,0.00
2012-9-11,98,71,56,58,50,43,83,51,18,29.92,29.83,8,1,8,0.00
2012-9-12,96,70,59,61,52,48,78,56,23,30.07,29.92,7,1,8,0.00
2012-9-13,101,80,60,61,54,50,77,46,20,30.12,29.95,6,1,6,0.00
2012-9-14,98,73,59,61,53,48,82,53,27,30.12,29.95,8,1,8,0.00
2012-9-15,97,75,57,57,48,25,74,43,9,30.12,29.95,7,1,7,0.00
2012-9-16,96,74,56,57,45,-9,67,41,2,30.07,29.92,9,2,9,0.00
2012-9-17,89,72,55,55,50,46,83,50,29,30.03,29.95,8,2,8,0.00
2012-9-18,88,67,52,54,50,46,89,57,29,30.12,29.95,8,2,8,0.00
2012-9-19,88,68,52,56,51,47,91,58,30,30.12,29.98,9,2,9,0.00
2012-9-20,92,76,52,56,51,41,91,46,26,30.07,29.95,6,1,6,0.00
2012-9-21,95,74,55,57,49,42,78,43,25,30.01,29.86,6,1,6,0.00
2012-9-22,98,76,58,56,47,7,73,40,4,29.98,29.83,5,1,5,0.00
2012-9-23,96,74,58,58,47,37,66,40,16,29.98,29.89,10,1,10,0.00
2012-9-24,92,79,55,55,49,40,87,40,19,30.01,29.83,6,1,6,0.00
2012-9-25,93,72,53,58,51,45,85,55,20,29.95,29.80,6,1,6,0.00
2012-9-26,93,72,55,57,52,48,86,55,27,29.92,29.80,5,1,6,0.00
2012-9-27,98,77,58,58,54,48,84,50,24,29.95,29.80,4,1,8,0.00
2012-9-28,89,69,58,57,53,51,80,59,30,29.95,29.83,6,2,9,0.00
2012-9-29,95,77,55,60,53,47,92,49,27,30.03,29.89,5,1,6,0.00
2012-9-30,99,76,57,58,51,43,81,47,15,30.09,29.95,6,1,6,0.00
2012-10-1,102,77,57,57,43,-7,72,41,2,30.03,29.86,4,0,6,0.00
2012-10-2,102,79,58,57,49,28,74,39,8,29.92,29.77,3,0,5,0.00
2012-10-3,98,78,58,57,48,33,70,39,14,29.95,29.80,10,1,10,0.00
2012-10-6,80,72,57,57,51,45,80,48,37,30.09,29.95,8,2,8,0.00
2012-10-7,83,66,51,58,51,46,94,64,35,30.07,29.92,7,1,7,0.00
2012-10-8,79,70,56,52,49,47,81,50,35,30.03,29.95,9,2,9,0.00
2012-10-9,80,64,50,58,50,42,96,65,32,30.07,29.95,7,1,7,0.00
2012-10-10,83,60,50,55,49,46,98,71,32,30.07,29.86,9,1,9,0.00
2012-10-11,68,57,51,56,51,49,95,82,56,29.95,29.89,9,1,9,0.00
2012-10-12,67,63,56,53,50,48,80,62,55,30.27,29.98,4,1,4,0.00
2012-10-13,80,63,50,54,50,47,96,67,39,30.33,30.18,8,1,8,0.00
2012-10-14,83,66,51,56,53,49,92,66,39,30.27,30.07,7,1,7,0.00
2012-10-15,87,69,53,60,55,50,96,66,33,30.09,29.95,7,1,7,0.00
2012-10-16,91,74,59,64,58,53,91,63,33,30.01,29.83,6,1,6,0.00
2012-10-17,88,66,52,57,38,17,67,37,11,29.95,29.83,8,1,8,0.00
2012-10-18,90,77,55,63,54,43,85,49,30,30.03,29.89,10,1,10,0.00
2012-10-19,83,69,58,63,58,52,95,71,40,30.07,29.89,8,2,8,0.00
2012-10-20,79,64,54,58,53,46,94,70,43,29.95,29.77,8,1,8,0.00
2012-10-21,70,58,50,50,42,36,83,59,34,29.95,29.83,10,1,10,0.00
2012-10-22,66,56,52,56,50,44,97,82,50,29.98,29.77,10,2,10,0.00
2012-10-23,68,56,50,55,46,37,95,72,41,30.09,29.98,7,0,7,0.00
2012-10-24,68,57,50,52,48,44,94,75,49,30.24,30.07,6,1,6,0.00
2012-10-25,69,60,54,52,46,37,89,63,43,30.33,30.01,10,1,10,0.00
2012-10-26,73,58,46,42,39,36,74,51,32,30.27,30.12,6,1,6,0.00
2012-10-28,82,69,0,56,52,49,85,55,38,30.07,0.00,5,0,5,0.00
2012-10-29,81,63,50,59,54,48,95,74,41,30.18,30.01,5,0,5,0.00
2012-10-30,62,52,50,59,51,48,97,94,91,30.09,30.07,4,0,4,0.00
2012-10-31,65,62,60,58,55,53,93,78,66,30.15,30.01,4,0,4,0.00
2012-11-1,73,63,54,61,56,50,97,80,52,30.07,30.01,5,1,5,0.00
2012-11-2,74,59,50,58,52,49,98,81,49,30.12,30.03,7,1,7,0.00
2012-11-3,74,60,48,57,50,47,97,75,44,30.18,30.07,6,0,6,0.00
2012-11-4,77,60,50,58,52,49,97,78,45,30.27,30.15,3,0,3,0.00
2012-11-5,80,62,50,59,53,49,98,76,42,30.21,30.07,4,0,4,0.00
2012-11-6,81,62,50,63,53,49,98,76,42,30.15,30.01,5,0,5,0.00
2012-11-7,75,60,49,58,53,48,97,80,45,30.07,29.89,7,1,7,0.00
2012-11-8,65,56,43,50,43,38,88,65,43,29.98,29.89,11,3,11,0.00
2012-11-9,60,49,42,46,40,35,95,74,44,29.98,29.92,8,1,8,0.00
2012-11-10,62,50,38,41,33,28,77,54,38,30.30,30.03,14,1,14,0.00
2012-11-11,62,43,35,41,34,31,94,73,40,30.45,30.30,4,0,4,0.00
2012-11-12,62,50,43,36,32,29,73,50,37,30.33,30.30,4,0,4,0.00
2012-11-13,66,44,37,44,36,33,87,75,42,30.33,30.12,5,0,5,0.00
2012-11-14,45,43,42,42,40,38,91,87,83,30.18,30.15,2,0,2,0.00
2012-11-15,67,49,40,50,42,37,94,79,46,30.30,29.98,4,0,4,0.00
2012-11-16,66,52,45,55,48,42,94,87,63,30.07,29.95,8,0,8,0.09
2012-11-17,58,57,57,56,55,55,96,94,91,29.95,29.86,9,3,9,0.12
2012-11-19,67,59,52,48,47,46,82,66,47,30.21,30.18,5,0,5,0.00
2012-11-20,70,59,50,55,51,46,94,76,54,30.21,30.07,10,2,10,0.00
2012-11-21,65,58,49,60,54,48,98,88,73,30.21,30.07,6,1,6,0.41
2012-11-22,64,52,44,49,44,41,98,78,48,30.30,30.18,6,0,6,0.00
2012-11-23,65,51,41,52,45,40,98,82,55,30.36,30.18,4,0,4,0.00
2012-11-24,64,51,40,54,46,39,98,83,57,30.24,30.07,4,0,4,0.00
2012-11-25,64,49,41,56,45,40,98,87,58,30.09,29.95,5,0,5,0.00
2012-11-26,64,53,38,55,47,38,98,82,58,30.12,30.01,4,0,4,0.00
2012-11-27,62,50,43,54,47,42,98,90,68,30.18,30.07,4,0,4,0.00
2012-11-29,62,61,55,57,56,52,97,85,70,30.09,29.89,8,3,10,0.25
2012-11-30,62,59,56,61,59,55,98,96,89,30.07,29.80,7,2,12,2.04
2012-12-1,66,60,56,63,59,55,98,94,86,30.07,29.89,11,3,14,0.41
2012-12-2,63,57,45,61,54,45,98,89,49,30.15,29.77,9,3,13,1.00
2012-12-3,61,51,41,54,48,41,98,90,68,30.27,30.12,6,0,6,0.00
2012-12-4,61,57,51,55,54,50,97,90,79,30.27,30.18,6,0,7,0.00
2012-12-5,59,57,55,57,56,54,98,96,94,30.24,30.09,6,1,6,0.28
2012-12-6,61,56,48,57,53,46,98,89,68,30.18,30.07,6,1,6,0.00
2012-12-7,56,48,40,52,46,41,98,93,81,30.18,30.09,4,0,6,0.00
2012-12-8,59,48,41,52,46,41,98,89,54,30.15,30.07,4,0,4,0.00
2012-12-9,58,47,37,50,42,37,98,85,49,30.24,30.12,4,0,5,0.00
2012-12-10,60,48,40,52,46,39,98,90,64,30.30,30.12,4,0,5,0.00
2012-12-11,62,51,42,54,47,43,98,88,64,30.15,29.86,9,1,11,0.00
2012-12-12,57,50,39,50,45,36,97,85,48,30.21,29.83,10,1,12,0.00
2012-12-13,52,41,35,48,38,34,98,88,59,29.98,29.89,6,0,8,0.00
2012-12-14,53,41,34,45,37,34,97,86,59,30.07,29.86,4,0,5,0.00
2012-12-15,46,40,32,45,39,30,98,95,89,30.15,30.07,6,1,6,0.17
2012-12-16,55,47,38,46,41,37,98,81,57,30.18,30.07,9,1,10,0.00
2012-12-17,60,51,42,55,49,43,98,93,78,30.12,29.98,9,2,9,0.29
2012-12-18,52,44,34,45,32,25,98,63,39,30.24,29.98,7,2,9,0.00
2012-12-19,49,39,30,34,29,23,91,67,45,30.39,30.18,4,1,5,0.00
2012-12-20,55,44,34,37,32,27,87,63,38,30.30,30.07,8,2,10,0.00
2012-12-21,54,46,42,46,33,28,93,61,49,30.07,29.92,12,3,13,0.25
2012-12-22,56,50,46,50,47,41,97,88,65,30.15,29.89,10,3,14,0.79
2012-12-23,53,50,49,52,49,48,98,94,83,30.15,29.89,14,4,21,0.74
2012-12-24,50,45,38,50,44,37,98,93,78,30.27,30.01,4,1,6,0.00
2012-12-25,48,44,37,48,44,37,98,97,93,30.21,29.83,8,2,11,0.71
2012-12-26,56,47,39,50,44,37,98,90,59,30.15,29.89,8,1,11,0.00
2012-12-27,51,43,36,46,40,36,98,91,70,30.24,30.12,8,0,10,0.00
2012-12-28,49,42,34,43,39,34,98,89,74,30.27,30.12,4,1,6,0.00
2012-12-29,54,44,36,41,39,34,96,82,54,30.12,30.07,4,1,6,0.00
2012-12-30,54,43,33,43,35,27,98,75,47,30.21,30.07,8,1,9,0.00
2012-12-31,50,41,32,37,32,27,93,69,53,30.33,30.18,7,1,7,0.00
2013-1-1,52,40,34,37,33,28,98,76,45,30.36,30.24,6,0,6,0.00